Kathmandu/Tribhuvan International Airport

Airport
ICAO code: 
VNKT
IATA Code: 
KTM
Summary
ICAO Region: 
APAC
Territory: 
Location: 
Kathmandu,
Serving: 
Kathmandu
Elevation: 
4390 ft
Coordinates: 
Aerial View: 
27° 41' 49.992" N, 85° 21' 28.008" E
Metar
Observation
VNKT 170620Z VRB02KT 5000 HZ FEW015 SCT250 16/07 Q1023 NOSIG
Station
Kathmandu Airport
Date/Time
2022-01-17 06:20:00
Wind speed
02 kts
Lowest cloud amount
few clouds
Temperature
16°C
Dew point
7°C
Humidity
55%
QNH
1023 hPa
Weather condition
n/a

International airport serving the capital city of Nepal.

Climatology

Humid “subtropical” climate (Köppen climate classification Cwa) - characterized by hot, humid summers and cool winters. Significant amounts of precipitation occur in all seasons in most areas. Humid subtropical climates in Asia differ from those in other continents, in that they generally have a pronounced dry winter.

Runways

Designator Length Width Surface Rops
2/20 3050 45 ASP Yes/Yes
Airport map: 
Aerial View: 

SKYbrary Partners:

Safety knowledge contributed by: